Location: Unspecified
(0.0000°N, 0.0000°E)
Time: 00:49:33
(UTC+00:00)

Falcon 9 debris - Pass Details

Date: 28 May 2022
Orbit: 386 x 392 km, 53.0° (Epoch: 29 June)

Event Time Altitude Azimuth Distance (km) Brightness Sun altitude
Rises 17:51:05 0° 280° (W) 2,274 ? 1.4°
Enters shadow 18:03:06 -11° 166° (SSE) 3,834 ? -1.4°
Exits shadow 18:37:44 -74° 94° (E) 12,698 ? -9.4°
